Weather History for Houghton, MI

Change the Weather History Date:

Friday, October 31, 2014

  Actual Average Record
Temperature  
Mean Temperature 28 °F -  
Max Temperature 33 °F 47 °F 59 °F (2000)
Min Temperature 23 °F 34 °F 13 °F (1954)
Degree Days  
Heating Degree Days 36    
Moisture  
Dew Point 23 °F    
Average Humidity 76    
Maximum Humidity 88    
Minimum Humidity 61    
Precipitation  
Precipitation 0.04 in - - ()
Sea Level Pressure  
Sea Level Pressure 30.35 in    
Wind  
Wind Speed 17 mph (North)    
Max Wind Speed 24 mph    
Max Gust Speed 36 mph    
Visibility 6 miles    
Events Snow    
Averages and records for this station are not official NWS values.
T = Trace of Precipitation, MM = Missing Value Source: NWS Daily Summary

Daily Weather History Graph

Daily Weather History Graph

Search for Another Location

Airport:

Trip Planner

Search our weather history database for the weather conditions in past years. The results will help you decide how hot, cold, wet, or windy it might be!

Date:

Astronomy

Oct. 31, 2014 Rise Set
Actual Time 8:35 AM EDT 6:38 PM EDT
Civil Twilight 8:03 AM EDT 7:10 PM EDT
Nautical Twilight 7:27 AM EDT 7:46 PM EDT
Astronomical Twilight 6:52 AM EDT 8:22 PM EDT
Moon 3:17 PM EDT 12:56 AM EDT
Length of Visible Light 11h 07m
Length of Day
10h 03m
First Quarter, 56% of the Moon is Illuminated
Oct 31
First Quarter
Nov 6
Full
Nov 14
Last Quarter
Nov 22
New
Nov 29
First Quarter

Hourly Weather History & Observations

Time (EDT) Temp. Windchill Dew Point Humidity Pressure Visibility Wind Dir Wind Speed Gust Speed Precip Events Conditions
12:00 AM 32.0 °F 18.9 °F 28.9 °F 88% 30.09 in 0.8 mi North 24.2 mph 33.4 mph 0.00 in Snow Light Snow
12:08 AM 32.0 °F 20.1 °F 28.0 °F 85% 30.09 in 1.0 mi NNE 19.6 mph 32.2 mph 0.00 in Snow Light Snow
12:19 AM 33.1 °F 21.2 °F 28.0 °F 82% 30.10 in 1.5 mi North 20.7 mph 31.1 mph 0.00 in Snow Light Snow
12:29 AM 33.1 °F 21.5 °F 28.0 °F 82% 30.10 in 2.5 mi North 19.6 mph 33.4 mph 0.00 in Snow Light Snow
12:42 AM 32.0 °F 19.2 °F 28.0 °F 85% 30.11 in 1.8 mi North 23.0 mph 33.4 mph 0.00 in Snow Light Snow
12:53 AM 32.0 °F 20.1 °F 27.0 °F 82% 30.16 in 1.8 mi North 19.6 mph 35.7 mph 0.00 in Snow Light Snow
1:09 AM 33.1 °F 21.2 °F 27.0 °F 78% 30.13 in 3.0 mi North 20.7 mph 27.6 mph 0.00 in Snow Light Snow
1:50 AM 30.2 °F 18.1 °F 26.6 °F 86% 30.16 in 1.8 mi NNE 18.4 mph 32.2 mph 0.01 in Snow Light Snow
1:53 AM 30.9 °F 19.4 °F 27.0 °F 85% 30.20 in 1.5 mi North 17.3 mph 32.2 mph 0.01 in Snow Light Snow
2:27 AM 30.9 °F 18.4 °F 26.1 °F 82% 30.18 in 3.0 mi North 20.7 mph 31.1 mph 0.01 in Snow Light Snow
2:53 AM 30.9 °F 18.1 °F 24.1 °F 76% 30.23 in 9.0 mi North 21.9 mph 31.1 mph 0.01 in   Overcast
3:32 AM 30.0 °F 17.5 °F 24.1 °F 79% 30.22 in 4.0 mi North 19.6 mph 28.8 mph 0.00 in Snow Light Snow
3:35 AM 30.0 °F 18.3 °F 25.0 °F 82% 30.22 in 2.5 mi North 17.3 mph 29.9 mph 0.01 in Snow Light Snow
3:42 AM 30.0 °F 17.5 °F 24.1 °F 79% 30.22 in 3.0 mi North 19.6 mph 29.9 mph 0.01 in Snow Light Snow
3:53 AM 30.0 °F 17.5 °F 21.9 °F 72% 30.27 in 9.0 mi NNE 19.6 mph 31.1 mph 0.01 in Snow Light Snow
4:53 AM 30.0 °F 18.3 °F 21.9 °F 72% 30.31 in 5.0 mi NNE 17.3 mph 27.6 mph 0.00 in Snow Light Snow
5:53 AM 28.9 °F 16.5 °F 21.9 °F 75% 30.34 in 5.0 mi North 18.4 mph 25.3 mph 0.00 in Snow Light Snow
6:33 AM 28.9 °F 16.5 °F 23.0 °F 78% 30.32 in 2.5 mi North 18.4 mph 28.8 mph 0.00 in Snow Light Snow
6:53 AM 28.9 °F 16.9 °F 21.9 °F 75% 30.38 in 3.0 mi North 17.3 mph 29.9 mph 0.00 in Snow Light Snow
7:02 AM 28.9 °F 17.3 °F 21.9 °F 75% 30.33 in 8.0 mi North 16.1 mph 25.3 mph 0.00 in Snow Light Snow
7:53 AM 28.9 °F 18.6 °F 21.0 °F 72% 30.39 in 9.0 mi NNE 12.7 mph 21.9 mph 0.00 in Snow Light Snow
8:53 AM 30.0 °F 20.0 °F 19.0 °F 64% 30.41 in 10.0 mi NNE 12.7 mph 19.6 mph 0.00 in   Overcast
9:53 AM 30.0 °F 20.5 °F 19.9 °F 66% 30.44 in 10.0 mi NNE 11.5 mph 20.7 mph 0.01 in   Overcast
10:53 AM 30.0 °F 20.5 °F 21.0 °F 69% 30.46 in 4.0 mi NNE 11.5 mph - 0.00 in Snow Light Snow
11:30 AM 30.0 °F 21.1 °F 23.0 °F 75% 30.43 in 8.0 mi NNE 10.4 mph - 0.00 in Snow Light Snow
11:53 AM 30.9 °F 20.7 °F 19.9 °F 64% 30.48 in 10.0 mi North 13.8 mph - 0.00 in   Overcast
12:53 PM 30.9 °F 20.2 °F 21.9 °F 69% 30.49 in 8.0 mi North 15.0 mph 23.0 mph 0.00 in Snow Light Snow
1:11 PM 30.0 °F 20.0 °F 21.9 °F 72% 30.44 in 2.5 mi NNE 12.7 mph 21.9 mph 0.00 in Snow Light Snow
1:18 PM 30.9 °F 21.7 °F 21.9 °F 69% 30.44 in 9.0 mi NNE 11.5 mph - 0.00 in   Overcast
1:53 PM 33.1 °F 24.4 °F 21.0 °F 61% 30.48 in 10.0 mi North 11.5 mph - 0.00 in   Mostly Cloudy
2:31 PM 30.9 °F 21.2 °F 26.1 °F 82% 30.44 in 1.8 mi NNW 12.7 mph - 0.00 in Snow Light Snow
2:35 PM 30.0 °F 20.0 °F 25.0 °F 82% 30.44 in 0.8 mi North 12.7 mph - 0.00 in Snow Light Snow
2:51 PM 30.2 °F 19.8 °F 24.8 °F 80% 30.44 in 1.2 mi NNW 13.8 mph - 0.00 in Snow Light Snow
2:53 PM 30.0 °F 19.5 °F 25.0 °F 82% 30.49 in 1.0 mi North 13.8 mph - 0.00 in Snow Light Snow
3:00 PM 30.0 °F 20.5 °F 25.0 °F 82% 30.44 in 0.8 mi North 11.5 mph 21.9 mph 0.00 in Snow Light Snow
3:06 PM 30.9 °F 22.8 °F 26.1 °F 82% 30.44 in 2.5 mi North 9.2 mph 19.6 mph 0.00 in Snow Light Snow
3:15 PM 32.0 °F 22.5 °F 25.0 °F 75% 30.43 in 4.0 mi North 12.7 mph 19.6 mph 0.00 in Snow Light Snow
3:30 PM 33.1 °F 23.0 °F 25.0 °F 72% 30.43 in 10.0 mi North 15.0 mph 19.6 mph 0.00 in   Overcast
3:53 PM 32.0 °F 23.0 °F 23.0 °F 69% 30.48 in 10.0 mi North 11.5 mph 19.6 mph 0.00 in   Mostly Cloudy
4:53 PM 32.0 °F 24.2 °F 21.0 °F 64% 30.47 in 10.0 mi NNW 9.2 mph - N/A   Overcast
5:53 PM 30.9 °F 21.2 °F 21.0 °F 67% 30.49 in 10.0 mi NNW 12.7 mph - N/A   Overcast
6:53 PM 30.0 °F 24.1 °F 19.9 °F 66% 30.50 in 10.0 mi North 5.8 mph - N/A   Mostly Cloudy
7:53 PM 28.9 °F 22.8 °F 19.9 °F 69% 30.50 in 10.0 mi NNW 5.8 mph - N/A   Mostly Cloudy
8:53 PM 28.9 °F 22.8 °F 19.9 °F 69% 30.50 in 10.0 mi NNW 5.8 mph - N/A   Scattered Clouds
9:53 PM 27.0 °F - 21.0 °F 78% 30.50 in 10.0 mi Calm Calm - N/A   Mostly Cloudy
10:53 PM 24.1 °F - 19.9 °F 84% 30.49 in 10.0 mi Calm Calm - N/A   Scattered Clouds
11:53 PM 23.0 °F - 19.0 °F 85% 30.49 in 10.0 mi Calm Calm - N/A   Mostly Cloudy